• en Suisse
  • Liste des pays
  • À 7 jours
  • Température de l'eau
  • Carte satellitaire
  • Carte météo
  • Widgets météo
  • user-avatar
    Se connecter

    Météo par heure à Hobart

    Ce jour, 19 Septembre, Mercredi

    Heure Température Précipitation Vent Pression Humidité
    00:00 +4°C° 0 mm 3 m/s 739 mmHg 93%
    01:00 +3°C° 0 mm 3 m/s 739 mmHg 93%
    02:00 +3°C° 0 mm 3 m/s 739 mmHg 93%
    03:00 +3°C° 0 mm 3 m/s 739 mmHg 93%
    04:00 +3°C° 0 mm 2 m/s 739 mmHg 96%
    05:00 +3°C° 0 mm 2 m/s 739 mmHg 94%
    06:00 +4°C° 0 mm 2 m/s 739 mmHg 93%
    07:00 +3°C° 0 mm 3 m/s 740 mmHg 91%
    08:00 +5°C° 0 mm 3 m/s 740 mmHg 79%
    09:00 +8°C° 0 mm 3 m/s 740 mmHg 67%
    10:00 +10°C° 0 mm 3 m/s 741 mmHg 60%
    11:00 +10°C° 0.2 mm 4 m/s 741 mmHg 58%
    12:00 +11°C° 0.2 mm 4 m/s 741 mmHg 57%
    13:00 +10°C° 0.2 mm 5 m/s 742 mmHg 55%
    14:00 +10°C° 0.1 mm 5 m/s 742 mmHg 52%
    15:00 +10°C° 0.1 mm 5 m/s 742 mmHg 48%
    16:00 +10°C° 0 mm 4 m/s 743 mmHg 47%
    17:00 +7°C° 0 mm 4 m/s 743 mmHg 55%
    18:00 +5°C° 0 mm 3 m/s 744 mmHg 63%
    19:00 +3°C° 0 mm 3 m/s 744 mmHg 71%
    20:00 +3°C° 0 mm 3 m/s 745 mmHg 77%
    21:00 +2°C° 0 mm 3 m/s 745 mmHg 82%
    22:00 +1°C° 0 mm 3 m/s 746 mmHg 88%
    23:00 +1°C° 0 mm 3 m/s 746 mmHg 89%

    Demain, 20 Septembre, Jeudi

    Heure Température Précipitation Vent Pression Humidité
    00:00 +1°C° 0 mm 3 m/s 746 mmHg 91%
    01:00 +1°C° 0 mm 3 m/s 746 mmHg 93%
    02:00 +1°C° 0 mm 3 m/s 746 mmHg 92%
    03:00 +2°C° 0 mm 3 m/s 746 mmHg 92%
    04:00 +2°C° 0 mm 3 m/s 746 mmHg 91%
    05:00 +3°C° 0 mm 3 m/s 746 mmHg 89%
    06:00 +4°C° 0 mm 3 m/s 746 mmHg 87%
    07:00 +4°C° 0 mm 3 m/s 746 mmHg 85%
    08:00 +6°C° 0 mm 4 m/s 747 mmHg 77%
    09:00 +8°C° 0 mm 4 m/s 747 mmHg 69%
    10:00 +11°C° 0 mm 4 m/s 747 mmHg 61%
    11:00 +12°C° 0 mm 4 m/s 747 mmHg 59%
    12:00 +13°C° 0 mm 4 m/s 747 mmHg 57%
    13:00 +14°C° 0 mm 4 m/s 747 mmHg 55%
    14:00 +14°C° 0 mm 4 m/s 747 mmHg 58%
    15:00 +13°C° 0 mm 4 m/s 747 mmHg 62%
    16:00 +13°C° 0 mm 3 m/s 747 mmHg 65%
    17:00 +11°C° 0 mm 3 m/s 747 mmHg 72%
    18:00 +10°C° 0 mm 3 m/s 748 mmHg 79%
    19:00 +9°C° 0 mm 2 m/s 748 mmHg 86%
    20:00 +9°C° 0 mm 2 m/s 749 mmHg 88%
    21:00 +9°C° 0 mm 3 m/s 749 mmHg 90%
    22:00 +8°C° 0 mm 3 m/s 749 mmHg 92%
    23:00 +8°C° 0 mm 3 m/s 750 mmHg 93%

    Après-demain, 21 Septembre, Vendredi

    Heure Température Précipitation Vent Pression Humidité
    00:00 +8°C° 0 mm 3 m/s 750 mmHg 94%
    01:00 +7°C° 0 mm 3 m/s 750 mmHg 94%
    02:00 +7°C° 0 mm 3 m/s 750 mmHg 94%
    03:00 +7°C° 0 mm 3 m/s 750 mmHg 94%
    04:00 +7°C° 0 mm 3 m/s 750 mmHg 93%
    05:00 +7°C° 0 mm 3 m/s 750 mmHg 91%
    06:00 +8°C° 0 mm 3 m/s 751 mmHg 88%
    07:00 +8°C° 0 mm 3 m/s 751 mmHg 86%
    08:00 +10°C° 0 mm 3 m/s 751 mmHg 78%
    09:00 +11°C° 0 mm 3 m/s 751 mmHg 70%
    10:00 +13°C° 0 mm 4 m/s 751 mmHg 63%
    11:00 +14°C° 0 mm 4 m/s 751 mmHg 60%
    12:00 +15°C° 0 mm 4 m/s 751 mmHg 57%
    13:00 +17°C° 0 mm 4 m/s 751 mmHg 54%
    14:00 +17°C° 0 mm 4 m/s 750 mmHg 55%
    15:00 +15°C° 0 mm 4 m/s 750 mmHg 56%
    16:00 +15°C° 0 mm 4 m/s 750 mmHg 57%
    17:00 +13°C° 0 mm 3 m/s 750 mmHg 64%
    18:00 +11°C° 0 mm 3 m/s 751 mmHg 72%
    19:00 +9°C° 0 mm 3 m/s 751 mmHg 80%
    20:00 +9°C° 0 mm 3 m/s 751 mmHg 81%
    21:00 +9°C° 0 mm 3 m/s 751 mmHg 82%
    22:00 +8°C° 0 mm 3 m/s 751 mmHg 83%
    23:00 +8°C° 0 mm 3 m/s 751 mmHg 82%

    22 Septembre, Samedi

    Heure Température Précipitation Vent Pression Humidité
    00:00 +8°C° 0 mm 3 m/s 751 mmHg 81%
    01:00 +7°C° 0 mm 4 m/s 751 mmHg 80%
    02:00 +7°C° 0 mm 4 m/s 751 mmHg 80%
    03:00 +7°C° 0 mm 4 m/s 750 mmHg 80%
    04:00 +7°C° 0 mm 4 m/s 750 mmHg 80%
    05:00 +8°C° 0 mm 4 m/s 750 mmHg 79%
    06:00 +8°C° 0 mm 4 m/s 750 mmHg 78%
    07:00 +10°C° 0 mm 4 m/s 750 mmHg 77%
    08:00 +10°C° 0 mm 5 m/s 750 mmHg 73%
    09:00 +12°C° 0 mm 5 m/s 749 mmHg 68%
    10:00 +13°C° 0 mm 6 m/s 749 mmHg 64%
    11:00 +14°C° 0.2 mm 6 m/s 748 mmHg 64%
    12:00 +14°C° 0.2 mm 7 m/s 748 mmHg 63%
    13:00 +15°C° 0.2 mm 7 m/s 748 mmHg 63%
    14:00 +12°C° 0.4 mm 7 m/s 748 mmHg 72%
    15:00 +10°C° 0.4 mm 6 m/s 749 mmHg 81%
    16:00 +8°C° 0.4 mm 6 m/s 749 mmHg 89%
    17:00 +7°C° 0 mm 6 m/s 750 mmHg 88%
    18:00 +5°C° 0 mm 6 m/s 751 mmHg 86%
    19:00 +4°C° 0 mm 6 m/s 751 mmHg 85%
    20:00 +3°C° 0 mm 5 m/s 752 mmHg 85%
    21:00 +2°C° 0 mm 5 m/s 753 mmHg 86%
    22:00 +1°C° 0 mm 5 m/s 753 mmHg 87%
    23:00 +1°C° 0 mm 5 m/s 753 mmHg 85%

    23 Septembre, Dimanche

    Heure Température Précipitation Vent Pression Humidité
    00:00 +1°C° 0 mm 5 m/s 753 mmHg 84%
    01:00 +1°C° 0 mm 5 m/s 753 mmHg 83%
    02:00 +1°C° 0 mm 5 m/s 753 mmHg 82%
    03:00 +2°C° 0 mm 5 m/s 753 mmHg 82%
    04:00 +2°C° 0 mm 5 m/s 754 mmHg 81%
    05:00 +2°C° 0.1 mm 5 m/s 754 mmHg 80%
    06:00 +3°C° 0.1 mm 5 m/s 754 mmHg 79%
    07:00 +3°C° 0.1 mm 5 m/s 755 mmHg 79%
    08:00 +4°C° 0.2 mm 6 m/s 755 mmHg 75%
    09:00 +5°C° 0.2 mm 6 m/s 755 mmHg 72%
    10:00 +5°C° 0.2 mm 6 m/s 756 mmHg 68%
    11:00 +7°C° 0.1 mm 6 m/s 756 mmHg 65%
    12:00 +7°C° 0.1 mm 6 m/s 756 mmHg 62%
    13:00 +8°C° 0.1 mm 6 m/s 756 mmHg 58%
    14:00 +7°C° 0.1 mm 6 m/s 756 mmHg 60%
    15:00 +7°C° 0.1 mm 6 m/s 756 mmHg 61%
    16:00 +7°C° 0.1 mm 6 m/s 756 mmHg 62%
    17:00 +5°C° 0 mm 5 m/s 757 mmHg 69%
    18:00 +4°C° 0 mm 4 m/s 757 mmHg 76%
    19:00 +1°C° 0 mm 4 m/s 758 mmHg 83%
    20:00 +1°C° 0 mm 4 m/s 758 mmHg 87%
    21:00 0°C° 0 mm 4 m/s 758 mmHg 90%
    22:00 -1°C° 0 mm 4 m/s 758 mmHg 94%
    23:00 0°C° 0 mm 3 m/s 758 mmHg 94%

    24 Septembre, Lundi

    Heure Température Précipitation Vent Pression Humidité
    00:00 0°C° 0 mm 3 m/s 758 mmHg 95%
    01:00 0°C° 0 mm 3 m/s 758 mmHg 95%
    02:00 0°C° 0 mm 3 m/s 757 mmHg 96%
    03:00 0°C° 0 mm 3 m/s 757 mmHg 96%
    04:00 0°C° 0 mm 3 m/s 757 mmHg 96%
    05:00 0°C° 0 mm 3 m/s 757 mmHg 92%
    06:00 0°C° 0 mm 4 m/s 757 mmHg 89%
    07:00 +1°C° 0 mm 4 m/s 757 mmHg 86%
    08:00 +4°C° 0 mm 4 m/s 757 mmHg 77%
    09:00 +6°C° 0 mm 4 m/s 757 mmHg 69%
    10:00 +8°C° 0 mm 5 m/s 756 mmHg 61%
    11:00 +8°C° 0 mm 5 m/s 756 mmHg 58%
    12:00 +9°C° 0 mm 5 m/s 755 mmHg 55%
    13:00 +10°C° 0 mm 5 m/s 755 mmHg 52%
    14:00 +9°C° 0 mm 5 m/s 754 mmHg 54%
    15:00 +9°C° 0 mm 6 m/s 754 mmHg 55%
    16:00 +9°C° 0 mm 6 m/s 754 mmHg 56%
    17:00 +7°C° 0 mm 6 m/s 754 mmHg 63%
    18:00 +6°C° 0 mm 5 m/s 754 mmHg 70%
    19:00 +5°C° 0 mm 5 m/s 754 mmHg 77%
    20:00 +3°C° 0 mm 5 m/s 754 mmHg 81%
    21:00 +3°C° 0 mm 5 m/s 754 mmHg 85%
    22:00 +2°C° 0 mm 5 m/s 753 mmHg 88%
    23:00 +2°C° 0 mm 5 m/s 753 mmHg 88%
    Voir plus